Location: *
(51.1248°S, 108.4023°W)
Time: 20:28:49
(UTC+00:00)

USA 281 - Pass Details

Date: 24 October 2021
Orbit: 1078 x 1081 km, 106.0° (Epoch: 25 November)

Event Time Altitude Azimuth Distance (km) Brightness Sun altitude
Exits shadow 03:18:29 - 15° (NNE) 3,429 5.4 -11.2°
Reaches altitude 10° 03:19:50 10° 13° (NNE) 2,926 5.1 -11.4°
Maximum altitude 03:26:21 61° 292° (WNW) 1,229 3.7 -12.2°
Drops below altitude 10° 03:32:56 10° 212° (SSW) 2,958 6.7 -13.0°
Sets 03:35:32 0° 208° (SSW) 3,920 7.5 -13.3°
